Tracking 24122 objects as of 9-Dec-2021
HD Live streaming from Space Station
objects crossing your sky now

OPS 4682 DEB

Track OPS 4682 DEB now!
10-day predictions


NORAD ID: 18967
Int'l Code: 1965-027AP
Perigee: 1,266.5 km
Apogee: 1,308.8 km
Inclination: 90.3 °
Period: 111.2 minutes
Semi major axis: 7658 km
RCS: 0.0192 m2 (small)
Launch date: April 3, 1965
Source: United States (US)
Launch site: AIR FORCE WESTERN TEST RANGE (AFWTR)

Note: This is SATELLITE DEBRIS
aabbcc
Your satellite tracking list
Your tracking list is empty




NASA's NSSDC Master Catalog

Two Line Element Set (TLE):
1 18967U 65027AP  21342.81035051 -.00000079  00000-0 -30803-3 0  9991
2 18967  90.2675 332.6398 0027578 157.8172 321.7264 12.95317099604669
Source of the keplerian elements: AFSPC